Wetterdaten: Dienstag, 06.10.2015
Datum Zeit Temperatur Luftfeuchte Luftdruck Regen Wind Richtung Richtung Sonnenschein ET UV Solar Taupunkt Windchill Windben
06.10.2015 00:00 13,1 C 77 % 1008,4 hPa 0,0 l/m 0,0 km/h (0 Bft) NO 49 0 min 0,000 mm 0,0 UV-I 0 W/m 9,2 C 13,1 C 1,6 km/h (1 Bft)
06.10.2015 00:05 13,1 C 77 % 1008,3 hPa 0,0 l/m 0,3 km/h (0 Bft) O-NO 59 0 min 0,000 mm 0,0 UV-I 0 W/m 9,2 C 13,1 C 4,8 km/h (1 Bft)
06.10.2015 00:10 13,0 C 77 % 1008,3 hPa 0,0 l/m 1,9 km/h (1 Bft) O-NO 61 0 min 0,000 mm 0,0 UV-I 0 W/m 9,1 C 13,0 C 8,0 km/h (2 Bft)
06.10.2015 00:15 13,0 C 77 % 1008,2 hPa 0,0 l/m 1,3 km/h (1 Bft) NO 55 0 min 0,000 mm 0,0 UV-I 0 W/m 9,1 C 13,0 C 8,0 km/h (2 Bft)
06.10.2015 00:20 13,0 C 77 % 1008,2 hPa 0,0 l/m 1,3 km/h (1 Bft) O-NO 71 0 min 0,000 mm 0,0 UV-I 0 W/m 9,1 C 13,0 C 9,7 km/h (2 Bft)
06.10.2015 00:25 13,0 C 77 % 1008,0 hPa 0,0 l/m 1,7 km/h (1 Bft) N 5 0 min 0,000 mm 0,0 UV-I 0 W/m 9,1 C 13,0 C 6,4 km/h (2 Bft)
06.10.2015 00:30 13,1 C 77 % 1007,9 hPa 0,0 l/m 1,3 km/h (1 Bft) O-NO 63 0 min 0,000 mm 0,0 UV-I 0 W/m 9,2 C 13,1 C 11,3 km/h (2 Bft)
06.10.2015 00:35 13,1 C 77 % 1007,9 hPa 0,0 l/m 0,3 km/h (0 Bft) NO 51 0 min 0,000 mm 0,0 UV-I 0 W/m 9,2 C 13,1 C 3,2 km/h (1 Bft)
06.10.2015 00:40 13,0 C 77 % 1007,9 hPa 0,2 l/m 1,8 km/h (1 Bft) NO 45 0 min 0,000 mm 0,0 UV-I 0 W/m 9,1 C 13,0 C 8,0 km/h (2 Bft)
06.10.2015 00:45 13,1 C 77 % 1007,8 hPa 0,0 l/m 0,8 km/h (0 Bft) NO 53 0 min 0,000 mm 0,0 UV-I 0 W/m 9,2 C 13,1 C 4,8 km/h (1 Bft)
06.10.2015 00:50 13,0 C 77 % 1007,7 hPa 0,0 l/m 0,1 km/h (0 Bft) O-NO 65 0 min 0,000 mm 0,0 UV-I 0 W/m 9,1 C 13,0 C 3,2 km/h (1 Bft)
06.10.2015 00:55 13,0 C 77 % 1007,7 hPa 0,0 l/m 0,5 km/h (0 Bft) N-NO 27 0 min 0,000 mm 0,0 UV-I 0 W/m 9,1 C 13,0 C 8,0 km/h (2 Bft)
06.10.2015 01:00 12,9 C 77 % 1007,6 hPa 0,0 l/m 1,1 km/h (1 Bft) O-NO 69 0 min 0,000 mm 0,0 UV-I 0 W/m 9,0 C 12,9 C 11,3 km/h (2 Bft)
06.10.2015 01:05 12,9 C 77 % 1007,5 hPa 0,0 l/m 1,1 km/h (1 Bft) O 87 0 min 0,025 mm 0,0 UV-I 0 W/m 9,0 C 12,9 C 8,0 km/h (2 Bft)
06.10.2015 01:10 12,9 C 77 % 1007,4 hPa 0,0 l/m 1,1 km/h (1 Bft) O 98 0 min 0,000 mm 0,0 UV-I 0 W/m 9,0 C 12,9 C 8,0 km/h (2 Bft)
06.10.2015 01:15 13,0 C 77 % 1007,4 hPa 0,0 l/m 2,4 km/h (1 Bft) NO 55 0 min 0,000 mm 0,0 UV-I 0 W/m 9,1 C 13,0 C 6,4 km/h (2 Bft)
06.10.2015 01:20 13,0 C 77 % 1007,3 hPa 0,0 l/m 2,6 km/h (1 Bft) O-NO 65 0 min 0,000 mm 0,0 UV-I 0 W/m 9,1 C 13,0 C 11,3 km/h (2 Bft)
06.10.2015 01:25 13,0 C 77 % 1007,3 hPa 0,0 l/m 2,3 km/h (1 Bft) O-NO 59 0 min 0,000 mm 0,0 UV-I 0 W/m 9,1 C 13,0 C 8,0 km/h (2 Bft)
06.10.2015 01:30 13,0 C 77 % 1007,3 hPa 0,0 l/m 1,4 km/h (1 Bft) NO 52 0 min 0,000 mm 0,0 UV-I 0 W/m 9,1 C 13,0 C 8,0 km/h (2 Bft)
06.10.2015 01:35 12,9 C 77 % 1007,2 hPa 0,0 l/m 1,6 km/h (1 Bft) O-NO 63 0 min 0,000 mm 0,0 UV-I 0 W/m 9,0 C 12,9 C 11,3 km/h (2 Bft)
06.10.2015 01:40 12,9 C 77 % 1007,2 hPa 0,0 l/m 0,3 km/h (0 Bft) O-NO 78 0 min 0,000 mm 0,0 UV-I 0 W/m 9,0 C 12,9 C 4,8 km/h (1 Bft)
06.10.2015 01:45 12,9 C 77 % 1007,1 hPa 0,0 l/m 1,5 km/h (1 Bft) O-SO 107 0 min 0,000 mm 0,0 UV-I 0 W/m 9,0 C 12,9 C 11,3 km/h (2 Bft)
06.10.2015 01:50 12,9 C 77 % 1007,0 hPa 0,2 l/m 2,3 km/h (1 Bft) O 90 0 min 0,000 mm 0,0 UV-I 0 W/m 9,0 C 12,9 C 11,3 km/h (2 Bft)
06.10.2015 01:55 12,9 C 77 % 1007,1 hPa 0,0 l/m 2,8 km/h (1 Bft) O-NO 76 0 min 0,000 mm 0,0 UV-I 0 W/m 9,0 C 12,9 C 9,7 km/h (2 Bft)
06.10.2015 02:00 12,9 C 77 % 1007,0 hPa 0,0 l/m 2,6 km/h (1 Bft) O-NO 72 0 min 0,000 mm 0,0 UV-I 0 W/m 9,0 C 12,9 C 9,7 km/h (2 Bft)
06.10.2015 02:05 12,9 C 77 % 1006,9 hPa 0,0 l/m 1,1 km/h (1 Bft) O 90 0 min 0,026 mm 0,0 UV-I 0 W/m 9,0 C 12,9 C 8,0 km/h (2 Bft)
06.10.2015 02:10 12,9 C 77 % 1006,9 hPa 0,0 l/m 2,7 km/h (1 Bft) O-NO 76 0 min 0,000 mm 0,0 UV-I 0 W/m 9,0 C 12,9 C 11,3 km/h (2 Bft)
06.10.2015 02:15 12,8 C 77 % 1006,8 hPa 0,0 l/m 2,5 km/h (1 Bft) NO 46 0 min 0,000 mm 0,0 UV-I 0 W/m 8,9 C 12,8 C 12,9 km/h (3 Bft)
06.10.2015 02:20 12,8 C 77 % 1006,7 hPa 0,2 l/m 2,5 km/h (1 Bft) NO 52 0 min 0,000 mm 0,0 UV-I 0 W/m 8,9 C 12,8 C 11,3 km/h (2 Bft)
06.10.2015 02:25 12,8 C 77 % 1006,7 hPa 0,0 l/m 3,7 km/h (1 Bft) NO 51 0 min 0,000 mm 0,0 UV-I 0 W/m 8,9 C 12,8 C 11,3 km/h (2 Bft)
06.10.2015 02:30 12,8 C 77 % 1006,5 hPa 0,0 l/m 2,6 km/h (1 Bft) O-NO 61 0 min 0,000 mm 0,0 UV-I 0 W/m 8,9 C 12,8 C 12,9 km/h (3 Bft)
06.10.2015 02:35 12,8 C 77 % 1006,5 hPa 0,0 l/m 2,5 km/h (1 Bft) O-NO 69 0 min 0,000 mm 0,0 UV-I 0 W/m 8,9 C 12,8 C 14,5 km/h (3 Bft)
06.10.2015 02:40 12,8 C 77 % 1006,5 hPa 0,0 l/m 5,0 km/h (1 Bft) NO 50 0 min 0,000 mm 0,0 UV-I 0 W/m 8,9 C 12,8 C 14,5 km/h (3 Bft)
06.10.2015 02:45 12,8 C 77 % 1006,4 hPa 0,0 l/m 1,3 km/h (1 Bft) O-NO 76 0 min 0,000 mm 0,0 UV-I 0 W/m 8,9 C 12,8 C 8,0 km/h (2 Bft)
06.10.2015 02:50 12,8 C 77 % 1006,2 hPa 0,0 l/m 3,4 km/h (1 Bft) O-NO 70 0 min 0,000 mm 0,0 UV-I 0 W/m 8,9 C 12,8 C 14,5 km/h (3 Bft)
06.10.2015 02:55 12,8 C 77 % 1006,2 hPa 0,0 l/m 2,8 km/h (1 Bft) O-NO 62 0 min 0,000 mm 0,0 UV-I 0 W/m 8,9 C 12,8 C 11,3 km/h (2 Bft)
06.10.2015 03:00 12,8 C 77 % 1006,2 hPa 0,0 l/m 3,8 km/h (1 Bft) NO 53 0 min 0,000 mm 0,0 UV-I 0 W/m 8,9 C 12,8 C 16,1 km/h (3 Bft)
06.10.2015 03:05 12,8 C 77 % 1006,1 hPa 0,2 l/m 4,3 km/h (1 Bft) O 84 0 min 0,025 mm 0,0 UV-I 0 W/m 8,9 C 12,8 C 12,9 km/h (3 Bft)
06.10.2015 03:10 12,8 C 77 % 1006,0 hPa 0,0 l/m 2,8 km/h (1 Bft) O-NO 59 0 min 0,000 mm 0,0 UV-I 0 W/m 8,9 C 12,8 C 12,9 km/h (3 Bft)
06.10.2015 03:15 12,8 C 77 % 1006,0 hPa 0,0 l/m 4,7 km/h (1 Bft) O 91 0 min 0,000 mm 0,0 UV-I 0 W/m 8,9 C 12,8 C 12,9 km/h (3 Bft)
06.10.2015 03:20 12,8 C 77 % 1005,9 hPa 0,2 l/m 3,2 km/h (1 Bft) O-NO 70 0 min 0,000 mm 0,0 UV-I 0 W/m 8,9 C 12,8 C 12,9 km/h (3 Bft)
06.10.2015 03:25 12,8 C 77 % 1005,8 hPa 0,0 l/m 3,5 km/h (1 Bft) O 99 0 min 0,000 mm 0,0 UV-I 0 W/m 8,9 C 12,8 C 12,9 km/h (3 Bft)
06.10.2015 03:30 12,8 C 77 % 1005,8 hPa 0,2 l/m 4,1 km/h (1 Bft) O-NO 67 0 min 0,000 mm 0,0 UV-I 0 W/m 8,9 C 12,8 C 14,5 km/h (3 Bft)
06.10.2015 03:35 12,7 C 77 % 1005,7 hPa 0,0 l/m 4,2 km/h (1 Bft) O 94 0 min 0,000 mm 0,0 UV-I 0 W/m 8,8 C 12,7 C 11,3 km/h (2 Bft)
06.10.2015 03:40 12,7 C 78 % 1005,7 hPa 0,0 l/m 5,7 km/h (1 Bft) NO 54 0 min 0,000 mm 0,0 UV-I 0 W/m 9,0 C 12,7 C 16,1 km/h (3 Bft)
06.10.2015 03:45 12,7 C 77 % 1005,7 hPa 0,0 l/m 6,5 km/h (2 Bft) O-SO 123 0 min 0,000 mm 0,0 UV-I 0 W/m 8,8 C 12,7 C 14,5 km/h (3 Bft)
06.10.2015 03:50 12,7 C 77 % 1005,6 hPa 0,2 l/m 4,8 km/h (1 Bft) NO 49 0 min 0,000 mm 0,0 UV-I 0 W/m 8,8 C 12,7 C 16,1 km/h (3 Bft)
06.10.2015 03:55 12,7 C 78 % 1005,6 hPa 0,0 l/m 4,3 km/h (1 Bft) NO 52 0 min 0,000 mm 0,0 UV-I 0 W/m 9,0 C 12,7 C 14,5 km/h (3 Bft)
06.10.2015 04:00 12,7 C 78 % 1005,5 hPa 0,0 l/m 3,2 km/h (1 Bft) O-NO 71 0 min 0,000 mm 0,0 UV-I 0 W/m 9,0 C 12,7 C 11,3 km/h (2 Bft)
06.10.2015 04:05 12,7 C 78 % 1005,5 hPa 0,0 l/m 3,5 km/h (1 Bft) O 101 0 min 0,026 mm 0,0 UV-I 0 W/m 9,0 C 12,7 C 14,5 km/h (3 Bft)
06.10.2015 04:10 12,7 C 78 % 1005,4 hPa 0,2 l/m 3,2 km/h (1 Bft) O-NO 67 0 min 0,000 mm 0,0 UV-I 0 W/m 9,0 C 12,7 C 12,9 km/h (3 Bft)
06.10.2015 04:15 12,7 C 78 % 1005,2 hPa 0,0 l/m 4,3 km/h (1 Bft) O 85 0 min 0,000 mm 0,0 UV-I 0 W/m 9,0 C 12,7 C 12,9 km/h (3 Bft)
06.10.2015 04:20 12,7 C 78 % 1005,2 hPa 0,0 l/m 1,7 km/h (1 Bft) O 91 0 min 0,000 mm 0,0 UV-I 0 W/m 9,0 C 12,7 C 11,3 km/h (2 Bft)
06.10.2015 04:25 12,7 C 78 % 1005,2 hPa 0,0 l/m 5,2 km/h (1 Bft) O-SO 112 0 min 0,000 mm 0,0 UV-I 0 W/m 9,0 C 12,7 C 12,9 km/h (3 Bft)
06.10.2015 04:30 12,7 C 78 % 1005,3 hPa 0,0 l/m 4,6 km/h (1 Bft) O 83 0 min 0,000 mm 0,0 UV-I 0 W/m 9,0 C 12,7 C 11,3 km/h (2 Bft)
06.10.2015 04:35 12,8 C 78 % 1005,2 hPa 0,0 l/m 4,9 km/h (1 Bft) O-SO 107 0 min 0,000 mm 0,0 UV-I 0 W/m 9,1 C 12,8 C 11,3 km/h (2 Bft)
06.10.2015 04:40 12,8 C 78 % 1005,2 hPa 0,0 l/m 4,4 km/h (1 Bft) O 91 0 min 0,000 mm 0,0 UV-I 0 W/m 9,1 C 12,8 C 12,9 km/h (3 Bft)
06.10.2015 04:45 12,8 C 78 % 1005,2 hPa 0,0 l/m 4,0 km/h (1 Bft) O 89 0 min 0,000 mm 0,0 UV-I 0 W/m 9,1 C 12,8 C 12,9 km/h (3 Bft)
06.10.2015 04:50 12,8 C 78 % 1005,2 hPa 0,0 l/m 4,8 km/h (1 Bft) O-SO 113 0 min 0,000 mm 0,0 UV-I 0 W/m 9,1 C 12,8 C 11,3 km/h (2 Bft)
06.10.2015 04:55 12,8 C 78 % 1005,1 hPa 0,0 l/m 3,3 km/h (1 Bft) O 85 0 min 0,000 mm 0,0 UV-I 0 W/m 9,1 C 12,8 C 12,9 km/h (3 Bft)
06.10.2015 05:00 12,8 C 78 % 1005,1 hPa 0,0 l/m 4,3 km/h (1 Bft) O-NO 73 0 min 0,025 mm 0,0 UV-I 0 W/m 9,1 C 12,8 C 11,3 km/h (2 Bft)
06.10.2015 05:05 12,8 C 78 % 1005,0 hPa 0,0 l/m 4,0 km/h (1 Bft) O-SO 102 0 min 0,000 mm 0,0 UV-I 0 W/m 9,1 C 12,8 C 12,9 km/h (3 Bft)
06.10.2015 05:10 12,8 C 78 % 1005,0 hPa 0,0 l/m 3,0 km/h (1 Bft) O 89 0 min 0,000 mm 0,0 UV-I 0 W/m 9,1 C 12,8 C 9,7 km/h (2 Bft)
06.10.2015 05:15 12,8 C 78 % 1005,0 hPa 0,0 l/m 4,8 km/h (1 Bft) O 101 0 min 0,000 mm 0,0 UV-I 0 W/m 9,1 C 12,8 C 11,3 km/h (2 Bft)
06.10.2015 05:20 12,8 C 78 % 1005,0 hPa 0,0 l/m 1,3 km/h (1 Bft) O-SO 109 0 min 0,000 mm 0,0 UV-I 0 W/m 9,1 C 12,8 C 4,8 km/h (1 Bft)
06.10.2015 05:25 12,8 C 79 % 1004,9 hPa 0,0 l/m 2,2 km/h (1 Bft) O-SO 106 0 min 0,000 mm 0,0 UV-I 0 W/m 9,2 C 12,8 C 9,7 km/h (2 Bft)
06.10.2015 05:30 12,8 C 79 % 1004,9 hPa 0,0 l/m 1,8 km/h (1 Bft) O 101 0 min 0,000 mm 0,0 UV-I 0 W/m 9,2 C 12,8 C 12,9 km/h (3 Bft)
06.10.2015 05:35 12,9 C 79 % 1004,8 hPa 0,0 l/m 1,8 km/h (1 Bft) O-SO 112 0 min 0,000 mm 0,0 UV-I 0 W/m 9,3 C 12,9 C 9,7 km/h (2 Bft)
06.10.2015 05:40 12,9 C 79 % 1004,7 hPa 0,0 l/m 1,4 km/h (1 Bft) O 101 0 min 0,000 mm 0,0 UV-I 0 W/m 9,3 C 12,9 C 6,4 km/h (2 Bft)
06.10.2015 05:45 12,9 C 79 % 1004,7 hPa 0,0 l/m 4,1 km/h (1 Bft) O 98 0 min 0,000 mm 0,0 UV-I 0 W/m 9,3 C 12,9 C 9,7 km/h (2 Bft)
06.10.2015 05:50 12,9 C 79 % 1004,7 hPa 0,0 l/m 1,5 km/h (1 Bft) O 96 0 min 0,000 mm 0,0 UV-I 0 W/m 9,3 C 12,9 C 11,3 km/h (2 Bft)
06.10.2015 05:55 12,9 C 79 % 1004,6 hPa 0,0 l/m 0,0 km/h (0 Bft) O 98 0 min 0,000 mm 0,0 UV-I 0 W/m 9,3 C 12,9 C 1,6 km/h (1 Bft)
06.10.2015 06:00 13,0 C 79 % 1004,6 hPa 0,0 l/m 1,5 km/h (1 Bft) O-NO 65 0 min 0,025 mm 0,0 UV-I 0 W/m 9,4 C 13,0 C 4,8 km/h (1 Bft)
06.10.2015 06:05 13,0 C 79 % 1004,6 hPa 0,0 l/m 0,3 km/h (0 Bft) O-NO 74 0 min 0,000 mm 0,0 UV-I 0 W/m 9,4 C 13,0 C 3,2 km/h (1 Bft)
06.10.2015 06:10 13,0 C 79 % 1004,6 hPa 0,0 l/m 1,2 km/h (1 Bft) O-NO 68 0 min 0,000 mm 0,0 UV-I 0 W/m 9,4 C 13,0 C 8,0 km/h (2 Bft)
06.10.2015 06:15 13,1 C 79 % 1004,6 hPa 0,0 l/m 2,4 km/h (1 Bft) O-NO 77 0 min 0,000 mm 0,0 UV-I 0 W/m 9,5 C 13,1 C 9,7 km/h (2 Bft)
06.10.2015 06:20 13,1 C 79 % 1004,6 hPa 0,0 l/m 1,5 km/h (1 Bft) O 99 0 min 0,000 mm 0,0 UV-I 0 W/m 9,5 C 13,1 C 8,0 km/h (2 Bft)
06.10.2015 06:25 13,1 C 79 % 1004,7 hPa 0,0 l/m 1,1 km/h (1 Bft) O 98 0 min 0,000 mm 0,0 UV-I 0 W/m 9,5 C 13,1 C 8,0 km/h (2 Bft)
06.10.2015 06:30 13,1 C 79 % 1004,8 hPa 0,0 l/m 0,4 km/h (0 Bft) O-SO 123 0 min 0,000 mm 0,0 UV-I 0 W/m 9,5 C 13,1 C 4,8 km/h (1 Bft)
06.10.2015 06:35 13,1 C 79 % 1004,9 hPa 0,0 l/m 0,0 km/h (0 Bft) O-SO 123 0 min 0,000 mm 0,0 UV-I 0 W/m 9,5 C 13,1 C 0,0 km/h (0 Bft)
06.10.2015 06:40 13,1 C 79 % 1004,9 hPa 0,0 l/m 0,0 km/h (0 Bft) O-SO 123 0 min 0,000 mm 0,0 UV-I 0 W/m 9,5 C 13,1 C 0,0 km/h (0 Bft)
06.10.2015 06:45 13,2 C 79 % 1004,9 hPa 0,0 l/m 0,0 km/h (0 Bft) O 96 0 min 0,000 mm 0,0 UV-I 0 W/m 9,6 C 13,2 C 0,0 km/h (0 Bft)
06.10.2015 06:50 13,2 C 79 % 1004,9 hPa 0,0 l/m 0,0 km/h (0 Bft) O 96 0 min 0,000 mm 0,0 UV-I 0 W/m 9,6 C 13,2 C 0,0 km/h (0 Bft)
06.10.2015 06:55 13,3 C 79 % 1004,7 hPa 0,2 l/m 0,5 km/h (0 Bft) O-NO 69 0 min 0,000 mm 0,0 UV-I 0 W/m 9,7 C 13,3 C 6,4 km/h (2 Bft)
06.10.2015 07:00 13,3 C 79 % 1004,7 hPa 0,0 l/m 0,0 km/h (0 Bft) O-NO 69 0 min 0,026 mm 0,0 UV-I 0 W/m 9,7 C 13,3 C 1,6 km/h (1 Bft)
06.10.2015 07:05 13,3 C 79 % 1004,7 hPa 0,0 l/m 0,1 km/h (0 Bft) NO 34 0 min 0,000 mm 0,0 UV-I 0 W/m 9,7 C 13,3 C 1,6 km/h (1 Bft)
06.10.2015 07:10 13,3 C 79 % 1004,7 hPa 0,0 l/m 0,0 km/h (0 Bft) NO 34 0 min 0,000 mm 0,0 UV-I 0 W/m 9,7 C 13,3 C 0,0 km/h (0 Bft)
06.10.2015 07:15 13,3 C 79 % 1004,7 hPa 0,0 l/m 0,0 km/h (0 Bft) NO 34 0 min 0,000 mm 0,0 UV-I 0 W/m 9,7 C 13,3 C 0,0 km/h (0 Bft)
06.10.2015 07:20 13,3 C 79 % 1004,7 hPa 0,0 l/m 0,0 km/h (0 Bft) NO 34 0 min 0,000 mm 0,0 UV-I 0 W/m 9,7 C 13,3 C 0,0 km/h (0 Bft)
06.10.2015 07:25 13,3 C 79 % 1004,7 hPa 0,0 l/m 0,0 km/h (0 Bft) NO 34 0 min 0,000 mm 0,0 UV-I 0 W/m 9,7 C 13,3 C 0,0 km/h (0 Bft)
06.10.2015 07:30 13,4 C 79 % 1004,7 hPa 0,0 l/m 0,0 km/h (0 Bft) NO 34 0 min 0,000 mm 0,0 UV-I 0 W/m 9,8 C 13,4 C 0,0 km/h (0 Bft)
06.10.2015 07:35 13,4 C 79 % 1004,6 hPa 0,0 l/m 0,0 km/h (0 Bft) NO 34 0 min 0,000 mm 0,0 UV-I 0 W/m 9,8 C 13,4 C 0,0 km/h (0 Bft)
06.10.2015 07:40 13,6 C 79 % 1004,7 hPa 0,0 l/m 1,1 km/h (1 Bft) O 82 0 min 0,000 mm 0,0 UV-I 0 W/m 10,0 C 13,6 C 8,0 km/h (2 Bft)
06.10.2015 07:45 13,7 C 79 % 1004,7 hPa 0,0 l/m 0,0 km/h (0 Bft) O 82 0 min 0,000 mm 0,0 UV-I 0 W/m 10,1 C 13,7 C 0,0 km/h (0 Bft)
06.10.2015 07:50 13,7 C 79 % 1004,7 hPa 0,0 l/m 0,0 km/h (0 Bft) O 82 0 min 0,000 mm 0,0 UV-I 0 W/m 10,1 C 13,7 C 0,0 km/h (0 Bft)
06.10.2015 07:55 13,7 C 79 % 1004,6 hPa 0,0 l/m 0,0 km/h (0 Bft) O 82 0 min 0,000 mm 0,0 UV-I 0 W/m 10,1 C 13,7 C 0,0 km/h (0 Bft)
06.10.2015 08:00 13,6 C 79 % 1004,6 hPa 0,0 l/m 0,0 km/h (0 Bft) O 82 0 min 0,000 mm 0,0 UV-I 0 W/m 10,0 C 13,6 C 0,0 km/h (0 Bft)
06.10.2015 08:05 13,7 C 79 % 1004,6 hPa 0,0 l/m 0,0 km/h (0 Bft) O 82 0 min 0,000 mm 0,0 UV-I 0 W/m 10,1 C 13,7 C 0,0 km/h (0 Bft)
06.10.2015 08:10 13,7 C 79 % 1004,6 hPa 0,0 l/m 0,0 km/h (0 Bft) O 82 0 min 0,000 mm 0,0 UV-I 4 W/m 10,1 C 13,7 C 0,0 km/h (0 Bft)
06.10.2015 08:15 13,7 C 79 % 1004,6 hPa 0,0 l/m 0,0 km/h (0 Bft) O 82 0 min 0,000 mm 0,0 UV-I 5 W/m 10,1 C 13,7 C 0,0 km/h (0 Bft)
06.10.2015 08:20 13,8 C 79 % 1004,6 hPa 0,0 l/m 0,0 km/h (0 Bft) O-NO 71 0 min 0,000 mm 0,0 UV-I 8 W/m 10,2 C 13,8 C 0,0 km/h (0 Bft)
06.10.2015 08:25 13,8 C 79 % 1004,7 hPa 0,0 l/m 0,0 km/h (0 Bft) O-NO 71 0 min 0,000 mm 0,0 UV-I 13 W/m 10,2 C 13,8 C 0,0 km/h (0 Bft)
06.10.2015 08:30 13,9 C 79 % 1004,6 hPa 0,0 l/m 0,0 km/h (0 Bft) O-NO 71 0 min 0,000 mm 0,0 UV-I 10 W/m 10,3 C 13,9 C 0,0 km/h (0 Bft)
06.10.2015 08:35 13,9 C 79 % 1004,6 hPa 0,0 l/m 0,0 km/h (0 Bft) O-NO 71 0 min 0,000 mm 0,0 UV-I 14 W/m 10,3 C 13,9 C 0,0 km/h (0 Bft)
06.10.2015 08:40 14,1 C 79 % 1004,7 hPa 0,0 l/m 0,0 km/h (0 Bft) O-NO 72 0 min 0,000 mm 0,0 UV-I 15 W/m 10,5 C 14,1 C 0,0 km/h (0 Bft)
06.10.2015 08:45 14,1 C 79 % 1004,6 hPa 0,0 l/m 0,0 km/h (0 Bft) O-NO 72 0 min 0,000 mm 0,0 UV-I 16 W/m 10,5 C 14,1 C 0,0 km/h (0 Bft)
06.10.2015 08:50 14,2 C 79 % 1004,6 hPa 0,0 l/m 0,0 km/h (0 Bft) O-NO 72 0 min 0,000 mm 0,0 UV-I 14 W/m 10,6 C 14,2 C 0,0 km/h (0 Bft)
06.10.2015 08:55 14,2 C 79 % 1004,6 hPa 0,0 l/m 0,0 km/h (0 Bft) O-NO 72 0 min 0,000 mm 0,0 UV-I 15 W/m 10,6 C 14,2 C 0,0 km/h (0 Bft)
06.10.2015 09:00 14,2 C 79 % 1004,7 hPa 0,0 l/m 0,1 km/h (0 Bft) O-SO 120 0 min 0,000 mm 0,0 UV-I 18 W/m 10,6 C 14,2 C 1,6 km/h (1 Bft)
06.10.2015 09:05 14,3 C 79 % 1004,7 hPa 0,0 l/m 0,2 km/h (0 Bft) S-SO 164 0 min 0,000 mm 0,0 UV-I 29 W/m 10,7 C 14,3 C 3,2 km/h (1 Bft)
06.10.2015 09:10 14,3 C 79 % 1004,7 hPa 0,0 l/m 0,3 km/h (0 Bft) SO 144 0 min 0,000 mm 0,0 UV-I 41 W/m 10,7 C 14,3 C 3,2 km/h (1 Bft)
06.10.2015 09:15 14,3 C 79 % 1004,7 hPa 0,0 l/m 0,1 km/h (0 Bft) SO 128 0 min 0,000 mm 0,0 UV-I 41 W/m 10,7 C 14,3 C 3,2 km/h (1 Bft)
06.10.2015 09:20 14,4 C 79 % 1004,6 hPa 0,0 l/m 0,0 km/h (0 Bft) O-NO 74 0 min 0,000 mm 0,0 UV-I 37 W/m 10,8 C 14,4 C 0,0 km/h (0 Bft)
06.10.2015 09:25 14,4 C 79 % 1004,6 hPa 0,0 l/m 0,7 km/h (0 Bft) O-SO 104 0 min 0,000 mm 0,0 UV-I 38 W/m 10,8 C 14,4 C 8,0 km/h (2 Bft)
06.10.2015 09:30 14,4 C 79 % 1004,5 hPa 0,0 l/m 0,0 km/h (0 Bft) O 101 0 min 0,000 mm 0,0 UV-I 48 W/m 10,8 C 14,4 C 0,0 km/h (0 Bft)
06.10.2015 09:35 14,5 C 79 % 1004,6 hPa 0,0 l/m 0,5 km/h (0 Bft) O-SO 102 0 min 0,000 mm 0,0 UV-I 54 W/m 10,9 C 14,5 C 4,8 km/h (1 Bft)
06.10.2015 09:40 14,6 C 79 % 1004,5 hPa 0,0 l/m 0,2 km/h (0 Bft) O-SO 105 0 min 0,000 mm 0,0 UV-I 46 W/m 11,0 C 14,6 C 3,2 km/h (1 Bft)
06.10.2015 09:45 14,6 C 79 % 1004,6 hPa 0,0 l/m 0,0 km/h (0 Bft) O-SO 105 0 min 0,000 mm 0,0 UV-I 46 W/m 11,0 C 14,6 C 0,0 km/h (0 Bft)
06.10.2015 09:50 14,7 C 79 % 1004,5 hPa 0,0 l/m 0,0 km/h (0 Bft) SO 140 0 min 0,000 mm 0,0 UV-I 51 W/m 11,1 C 14,7 C 0,0 km/h (0 Bft)
06.10.2015 09:55 14,7 C 79 % 1004,5 hPa 0,0 l/m 0,0 km/h (0 Bft) S-SO 164 0 min 0,000 mm 0,0 UV-I 60 W/m 11,1 C 14,7 C 1,6 km/h (1 Bft)
06.10.2015 10:00 14,8 C 78 % 1004,5 hPa 0,0 l/m 0,0 km/h (0 Bft) S-SO 164 0 min 0,025 mm 0,0 UV-I 57 W/m 11,0 C 14,8 C 0,0 km/h (0 Bft)
06.10.2015 10:05 14,8 C 78 % 1004,5 hPa 0,0 l/m 0,2 km/h (0 Bft) O-SO 103 0 min 0,000 mm 0,1 UV-I 64 W/m 11,0 C 14,8 C 3,2 km/h (1 Bft)
06.10.2015 10:10 14,9 C 78 % 1004,4 hPa 0,0 l/m 0,5 km/h (0 Bft) O-SO 105 0 min 0,000 mm 0,6 UV-I 106 W/m 11,1 C 14,9 C 3,2 km/h (1 Bft)
06.10.2015 10:15 14,9 C 78 % 1004,5 hPa 0,0 l/m 2,2 km/h (1 Bft) SO 145 0 min 0,000 mm 0,7 UV-I 126 W/m 11,1 C 14,9 C 8,0 km/h (2 Bft)
06.10.2015 10:20 15,1 C 78 % 1004,7 hPa 0,0 l/m 1,0 km/h (0 Bft) S-SO 150 0 min 0,000 mm 0,6 UV-I 115 W/m 11,3 C 15,1 C 6,4 km/h (2 Bft)
06.10.2015 10:25 15,2 C 78 % 1004,7 hPa 0,0 l/m 0,0 km/h (0 Bft) O-SO 109 0 min 0,000 mm 0,8 UV-I 157 W/m 11,4 C 15,2 C 0,0 km/h (0 Bft)
06.10.2015 10:30 15,3 C 78 % 1004,7 hPa 0,0 l/m 0,6 km/h (0 Bft) S-SW 196 0 min 0,000 mm 0,7 UV-I 115 W/m 11,5 C 15,3 C 4,8 km/h (1 Bft)
06.10.2015 10:35 15,4 C 78 % 1004,8 hPa 0,0 l/m 0,0 km/h (0 Bft) S-SW 195 0 min 0,000 mm 0,5 UV-I 76 W/m 11,6 C 15,4 C 0,0 km/h (0 Bft)
06.10.2015 10:40 15,4 C 77 % 1004,8 hPa 0,0 l/m 0,1 km/h (0 Bft) O-SO 109 0 min 0,000 mm 0,4 UV-I 64 W/m 11,4 C 15,4 C 1,6 km/h (1 Bft)
06.10.2015 10:45 15,5 C 77 % 1004,9 hPa 0,0 l/m 0,7 km/h (0 Bft) S 189 0 min 0,000 mm 0,3 UV-I 84 W/m 11,5 C 15,5 C 4,8 km/h (1 Bft)
06.10.2015 10:50 15,6 C 77 % 1004,8 hPa 0,0 l/m 0,9 km/h (0 Bft) SO 135 0 min 0,000 mm 0,6 UV-I 116 W/m 11,6 C 15,6 C 8,0 km/h (2 Bft)
06.10.2015 10:55 15,7 C 77 % 1004,8 hPa 0,0 l/m 2,6 km/h (1 Bft) S-SW 200 0 min 0,000 mm 0,6 UV-I 121 W/m 11,7 C 15,7 C 8,0 km/h (2 Bft)
06.10.2015 11:00 15,7 C 77 % 1004,8 hPa 0,0 l/m 3,4 km/h (1 Bft) S-SO 165 0 min 0,051 mm 0,7 UV-I 113 W/m 11,7 C 15,7 C 8,0 km/h (2 Bft)
06.10.2015 11:05 15,8 C 77 % 1004,8 hPa 0,0 l/m 2,8 km/h (1 Bft) O-SO 117 0 min 0,000 mm 0,8 UV-I 144 W/m 11,8 C 15,8 C 6,4 km/h (2 Bft)
06.10.2015 11:10 15,8 C 77 % 1004,8 hPa 0,0 l/m 3,0 km/h (1 Bft) O-SO 121 0 min 0,000 mm 1,0 UV-I 156 W/m 11,8 C 15,8 C 11,3 km/h (2 Bft)
06.10.2015 11:15 15,9 C 77 % 1004,8 hPa 0,0 l/m 1,6 km/h (1 Bft) SO 141 0 min 0,000 mm 1,1 UV-I 176 W/m 11,9 C 15,9 C 4,8 km/h (1 Bft)
06.10.2015 11:20 15,9 C 77 % 1004,8 hPa 0,0 l/m 2,2 km/h (1 Bft) O-SO 105 0 min 0,000 mm 0,8 UV-I 107 W/m 11,9 C 15,9 C 6,4 km/h (2 Bft)
06.10.2015 11:25 16,0 C 76 % 1004,8 hPa 0,0 l/m 0,8 km/h (0 Bft) O-SO 110 0 min 0,000 mm 0,7 UV-I 81 W/m 11,8 C 16,0 C 4,8 km/h (1 Bft)
06.10.2015 11:30 16,0 C 76 % 1004,9 hPa 0,0 l/m 0,0 km/h (0 Bft) SO 134 0 min 0,000 mm 0,6 UV-I 82 W/m 11,8 C 16,0 C 0,0 km/h (0 Bft)
06.10.2015 11:35 16,0 C 76 % 1004,9 hPa 0,0 l/m 0,5 km/h (0 Bft) SO 132 0 min 0,000 mm 0,6 UV-I 84 W/m 11,8 C 16,0 C 3,2 km/h (1 Bft)
06.10.2015 11:40 15,9 C 76 % 1004,9 hPa 0,0 l/m 1,4 km/h (1 Bft) SO 134 0 min 0,000 mm 0,6 UV-I 80 W/m 11,7 C 15,9 C 4,8 km/h (1 Bft)
06.10.2015 11:45 16,1 C 76 % 1005,0 hPa 0,0 l/m 0,0 km/h (0 Bft) SO 136 0 min 0,000 mm 0,7 UV-I 90 W/m 11,9 C 16,1 C 1,6 km/h (1 Bft)
06.10.2015 11:50 16,1 C 76 % 1005,0 hPa 0,0 l/m 0,0 km/h (0 Bft) SO 136 0 min 0,000 mm 1,2 UV-I 174 W/m 11,9 C 16,1 C 0,0 km/h (0 Bft)
06.10.2015 11:55 16,1 C 76 % 1005,0 hPa 0,0 l/m 0,0 km/h (0 Bft) SO 136 0 min 0,000 mm 1,1 UV-I 160 W/m 11,9 C 16,1 C 0,0 km/h (0 Bft)
06.10.2015 12:00 16,2 C 76 % 1005,0 hPa 0,0 l/m 0,0 km/h (0 Bft) SO 136 0 min 0,000 mm 0,7 UV-I 95 W/m 12,0 C 16,2 C 0,0 km/h (0 Bft)
06.10.2015 12:05 16,4 C 77 % 1005,0 hPa 0,0 l/m 0,0 km/h (0 Bft) O 89 0 min 0,076 mm 0,8 UV-I 101 W/m 12,4 C 16,4 C 0,0 km/h (0 Bft)
06.10.2015 12:10 16,5 C 77 % 1005,0 hPa 0,0 l/m 0,0 km/h (0 Bft) O 89 0 min 0,000 mm 0,6 UV-I 87 W/m 12,5 C 16,5 C 0,0 km/h (0 Bft)
06.10.2015 12:15 16,6 C 76 % 1005,0 hPa 0,0 l/m 0,0 km/h (0 Bft) O 89 0 min 0,000 mm 0,6 UV-I 80 W/m 12,3 C 16,6 C 0,0 km/h (0 Bft)
06.10.2015 12:20 16,6 C 76 % 1005,0 hPa 0,0 l/m 0,0 km/h (0 Bft) O 89 0 min 0,000 mm 0,6 UV-I 79 W/m 12,3 C 16,6 C 0,0 km/h (0 Bft)
06.10.2015 12:25 16,7 C 76 % 1005,0 hPa 0,0 l/m 0,0 km/h (0 Bft) O 89 0 min 0,000 mm 0,5 UV-I 68 W/m 12,4 C 16,7 C 0,0 km/h (0 Bft)
06.10.2015 12:30 16,7 C 76 % 1005,0 hPa 0,0 l/m 0,0 km/h (0 Bft) O 89 0 min 0,000 mm 0,6 UV-I 74 W/m 12,4 C 16,7 C 0,0 km/h (0 Bft)
06.10.2015 12:35 16,7 C 76 % 1005,0 hPa 0,0 l/m 0,0 km/h (0 Bft) O 94 0 min 0,000 mm 0,5 UV-I 62 W/m 12,4 C 16,7 C 1,6 km/h (1 Bft)
06.10.2015 12:40 16,7 C 76 % 1005,1 hPa 0,0 l/m 0,0 km/h (0 Bft) O 94 0 min 0,000 mm 0,5 UV-I 59 W/m 12,4 C 16,7 C 1,6 km/h (1 Bft)
06.10.2015 12:45 16,6 C 76 % 1005,1 hPa 0,0 l/m 1,1 km/h (1 Bft) O-NO 72 0 min 0,000 mm 0,3 UV-I 62 W/m 12,3 C 16,6 C 4,8 km/h (1 Bft)
06.10.2015 12:50 16,6 C 76 % 1005,0 hPa 0,0 l/m 0,1 km/h (0 Bft) O-NO 68 0 min 0,000 mm 0,6 UV-I 89 W/m 12,3 C 16,6 C 1,6 km/h (1 Bft)
06.10.2015 12:55 16,7 C 76 % 1005,0 hPa 0,0 l/m 0,0 km/h (0 Bft) NO 53 0 min 0,000 mm 1,0 UV-I 172 W/m 12,4 C 16,7 C 0,0 km/h (0 Bft)
06.10.2015 13:00 16,8 C 76 % 1005,0 hPa 0,0 l/m 0,4 km/h (0 Bft) NO 53 0 min 0,000 mm 1,2 UV-I 200 W/m 12,5 C 16,8 C 4,8 km/h (1 Bft)
06.10.2015 13:05 16,9 C 76 % 1004,9 hPa 0,0 l/m 0,0 km/h (0 Bft) NO 51 0 min 0,051 mm 1,5 UV-I 264 W/m 12,6 C 16,9 C 0,0 km/h (0 Bft)
06.10.2015 13:10 17,1 C 76 % 1005,0 hPa 0,0 l/m 0,7 km/h (0 Bft) O-NO 74 0 min 0,000 mm 1,4 UV-I 220 W/m 12,8 C 17,1 C 3,2 km/h (1 Bft)
06.10.2015 13:15 17,2 C 76 % 1005,0 hPa 0,0 l/m 0,0 km/h (0 Bft) O 85 0 min 0,000 mm 0,8 UV-I 122 W/m 12,9 C 17,2 C 1,6 km/h (1 Bft)
06.10.2015 13:20 17,2 C 76 % 1005,0 hPa 0,0 l/m 0,0 km/h (0 Bft) O-SO 105 0 min 0,000 mm 0,6 UV-I 91 W/m 12,9 C 17,2 C 0,0 km/h (0 Bft)
06.10.2015 13:25 17,3 C 76 % 1005,0 hPa 0,0 l/m 2,2 km/h (1 Bft) S-SO 153 0 min 0,000 mm 0,7 UV-I 101 W/m 13,0 C 17,3 C 6,4 km/h (2 Bft)
06.10.2015 13:30 17,3 C 76 % 1005,1 hPa 0,0 l/m 1,0 km/h (0 Bft) O-SO 111 0 min 0,000 mm 0,7 UV-I 94 W/m 13,0 C 17,3 C 6,4 km/h (2 Bft)
06.10.2015 13:35 17,3 C 76 % 1005,0 hPa 0,0 l/m 0,0 km/h (0 Bft) S-SO 167 0 min 0,000 mm 0,7 UV-I 97 W/m 13,0 C 17,3 C 1,6 km/h (1 Bft)
06.10.2015 13:40 17,3 C 76 % 1005,0 hPa 0,0 l/m 1,1 km/h (1 Bft) SW 223 0 min 0,000 mm 0,6 UV-I 92 W/m 13,0 C 17,3 C 6,4 km/h (2 Bft)
06.10.2015 13:45 17,3 C 76 % 1005,0 hPa 0,0 l/m 0,0 km/h (0 Bft) SW 223 0 min 0,000 mm 0,7 UV-I 96 W/m 13,0 C 17,3 C 0,0 km/h (0 Bft)
06.10.2015 13:50 17,4 C 76 % 1005,0 hPa 0,0 l/m 0,0 km/h (0 Bft) SW 223 0 min 0,000 mm 0,9 UV-I 119 W/m 13,1 C 17,4 C 0,0 km/h (0 Bft)
06.10.2015 13:55 17,6 C 76 % 1004,8 hPa 0,0 l/m 0,0 km/h (0 Bft) SW 223 0 min 0,000 mm 0,9 UV-I 119 W/m 13,3 C 17,6 C 0,0 km/h (0 Bft)
06.10.2015 14:00 17,6 C 76 % 1004,8 hPa 0,0 l/m 0,0 km/h (0 Bft) O 98 0 min 0,000 mm 0,8 UV-I 125 W/m 13,3 C 17,6 C 0,0 km/h (0 Bft)
06.10.2015 14:05 17,6 C 76 % 1004,7 hPa 0,0 l/m 0,0 km/h (0 Bft) O-SO 102 0 min 0,076 mm 0,6 UV-I 90 W/m 13,3 C 17,6 C 0,0 km/h (0 Bft)
06.10.2015 14:10 17,7 C 76 % 1004,7 hPa 0,0 l/m 0,0 km/h (0 Bft) O-SO 102 0 min 0,000 mm 0,7 UV-I 108 W/m 13,4 C 17,7 C 0,0 km/h (0 Bft)
06.10.2015 14:15 17,7 C 76 % 1004,7 hPa 0,0 l/m 0,0 km/h (0 Bft) O-NO 60 0 min 0,000 mm 0,8 UV-I 111 W/m 13,4 C 17,7 C 1,6 km/h (1 Bft)
06.10.2015 14:20 17,8 C 76 % 1004,7 hPa 0,0 l/m 0,2 km/h (0 Bft) O-NO 60 0 min 0,000 mm 0,6 UV-I 72 W/m 13,5 C 17,8 C 3,2 km/h (1 Bft)
06.10.2015 14:25 17,8 C 76 % 1004,7 hPa 0,0 l/m 1,2 km/h (1 Bft) O-NO 65 0 min 0,000 mm 0,0 UV-I 50 W/m 13,5 C 17,8 C 6,4 km/h (2 Bft)
06.10.2015 14:30 17,8 C 76 % 1004,6 hPa 0,0 l/m 1,1 km/h (1 Bft) O 95 0 min 0,000 mm 0,8 UV-I 124 W/m 13,5 C 17,8 C 6,4 km/h (2 Bft)
06.10.2015 14:35 17,7 C 76 % 1004,6 hPa 0,0 l/m 1,6 km/h (1 Bft) O-NO 69 0 min 0,000 mm 0,8 UV-I 99 W/m 13,4 C 17,7 C 8,0 km/h (2 Bft)
06.10.2015 14:40 17,7 C 76 % 1004,6 hPa 0,0 l/m 1,4 km/h (1 Bft) O 84 0 min 0,000 mm 0,8 UV-I 107 W/m 13,4 C 17,7 C 8,0 km/h (2 Bft)
06.10.2015 14:45 17,7 C 76 % 1004,5 hPa 0,0 l/m 0,7 km/h (0 Bft) O-NO 59 0 min 0,000 mm 0,7 UV-I 94 W/m 13,4 C 17,7 C 4,8 km/h (1 Bft)
06.10.2015 14:50 17,7 C 76 % 1004,5 hPa 0,0 l/m 2,7 km/h (1 Bft) O-SO 105 0 min 0,000 mm 0,5 UV-I 67 W/m 13,4 C 17,7 C 9,7 km/h (2 Bft)
06.10.2015 14:55 17,6 C 76 % 1004,5 hPa 0,0 l/m 1,7 km/h (1 Bft) O-SO 119 0 min 0,000 mm 0,0 UV-I 48 W/m 13,3 C 17,6 C 8,0 km/h (2 Bft)
06.10.2015 15:00 17,6 C 76 % 1004,4 hPa 0,0 l/m 2,1 km/h (1 Bft) O-SO 118 0 min 0,000 mm 0,4 UV-I 55 W/m 13,3 C 17,6 C 8,0 km/h (2 Bft)
06.10.2015 15:05 17,5 C 76 % 1004,4 hPa 0,0 l/m 1,3 km/h (1 Bft) O 94 0 min 0,051 mm 0,0 UV-I 35 W/m 13,2 C 17,5 C 6,4 km/h (2 Bft)
06.10.2015 15:10 17,4 C 76 % 1004,4 hPa 0,0 l/m 1,6 km/h (1 Bft) O 80 0 min 0,000 mm 0,0 UV-I 28 W/m 13,1 C 17,4 C 4,8 km/h (1 Bft)
06.10.2015 15:15 17,3 C 76 % 1004,3 hPa 0,0 l/m 0,8 km/h (0 Bft) O-NO 69 0 min 0,000 mm 0,0 UV-I 26 W/m 13,0 C 17,3 C 6,4 km/h (2 Bft)
06.10.2015 15:20 17,2 C 76 % 1004,3 hPa 0,0 l/m 0,6 km/h (0 Bft) O 83 0 min 0,000 mm 0,0 UV-I 28 W/m 12,9 C 17,2 C 4,8 km/h (1 Bft)
06.10.2015 15:25 17,2 C 76 % 1004,2 hPa 0,0 l/m 0,4 km/h (0 Bft) O-NO 59 0 min 0,000 mm 0,0 UV-I 27 W/m 12,9 C 17,2 C 4,8 km/h (1 Bft)
06.10.2015 15:30 17,2 C 76 % 1004,2 hPa 0,0 l/m 0,8 km/h (0 Bft) O-NO 59 0 min 0,000 mm 0,0 UV-I 39 W/m 12,9 C 17,2 C 4,8 km/h (1 Bft)
06.10.2015 15:35 17,2 C 76 % 1004,2 hPa 0,0 l/m 0,6 km/h (0 Bft) O-NO 69 0 min 0,000 mm 0,0 UV-I 42 W/m 12,9 C 17,2 C 4,8 km/h (1 Bft)
06.10.2015 15:40 17,2 C 76 % 1004,2 hPa 0,0 l/m 0,5 km/h (0 Bft) O-NO 66 0 min 0,000 mm 0,4 UV-I 87 W/m 12,9 C 17,2 C 4,8 km/h (1 Bft)
06.10.2015 15:45 17,2 C 76 % 1004,1 hPa 0,0 l/m 0,1 km/h (0 Bft) O 92 0 min 0,000 mm 0,0 UV-I 59 W/m 12,9 C 17,2 C 3,2 km/h (1 Bft)
06.10.2015 15:50 17,1 C 76 % 1004,0 hPa 0,0 l/m 0,8 km/h (0 Bft) O-NO 78 0 min 0,000 mm 0,0 UV-I 70 W/m 12,8 C 17,1 C 6,4 km/h (2 Bft)
06.10.2015 15:55 17,1 C 76 % 1004,0 hPa 0,0 l/m 1,6 km/h (1 Bft) O-SO 104 0 min 0,000 mm 0,0 UV-I 53 W/m 12,8 C 17,1 C 8,0 km/h (2 Bft)
06.10.2015 16:00 17,0 C 76 % 1004,0 hPa 0,0 l/m 0,0 km/h (0 Bft) O-SO 111 0 min 0,000 mm 0,0 UV-I 43 W/m 12,7 C 17,0 C 1,6 km/h (1 Bft)
06.10.2015 16:05 16,9 C 76 % 1004,0 hPa 0,2 l/m 2,1 km/h (1 Bft) O 90 0 min 0,025 mm 0,0 UV-I 60 W/m 12,6 C 16,9 C 8,0 km/h (2 Bft)
06.10.2015 16:10 16,8 C 77 % 1004,0 hPa 0,0 l/m 2,2 km/h (1 Bft) O 82 0 min 0,000 mm 0,0 UV-I 46 W/m 12,7 C 16,8 C 9,7 km/h (2 Bft)
06.10.2015 16:15 16,8 C 77 % 1004,0 hPa 0,0 l/m 1,4 km/h (1 Bft) O-SO 109 0 min 0,000 mm 0,0 UV-I 53 W/m 12,7 C 16,8 C 11,3 km/h (2 Bft)
06.10.2015 16:20 16,8 C 77 % 1004,0 hPa 0,0 l/m 3,7 km/h (1 Bft) O-SO 103 0 min 0,000 mm 0,2 UV-I 78 W/m 12,7 C 16,8 C 9,7 km/h (2 Bft)
06.10.2015 16:25 16,9 C 77 % 1004,0 hPa 0,0 l/m 0,1 km/h (0 Bft) O 97 0 min 0,000 mm 0,3 UV-I 86 W/m 12,8 C 16,9 C 3,2 km/h (1 Bft)
06.10.2015 16:30 16,9 C 77 % 1003,9 hPa 0,0 l/m 0,2 km/h (0 Bft) O-SO 115 0 min 0,000 mm 0,0 UV-I 77 W/m 12,8 C 16,9 C 4,8 km/h (1 Bft)
06.10.2015 16:35 16,9 C 77 % 1003,9 hPa 0,0 l/m 2,5 km/h (1 Bft) O-SO 107 0 min 0,000 mm 0,0 UV-I 76 W/m 12,8 C 16,9 C 9,7 km/h (2 Bft)
06.10.2015 16:40 16,9 C 77 % 1003,8 hPa 0,0 l/m 3,7 km/h (1 Bft) O-SO 114 0 min 0,000 mm 0,0 UV-I 80 W/m 12,8 C 16,9 C 11,3 km/h (2 Bft)
06.10.2015 16:45 17,0 C 76 % 1003,8 hPa 0,0 l/m 0,6 km/h (0 Bft) O 90 0 min 0,000 mm 0,0 UV-I 44 W/m 12,7 C 17,0 C 4,8 km/h (1 Bft)
06.10.2015 16:50 17,0 C 77 % 1003,9 hPa 0,0 l/m 0,7 km/h (0 Bft) S-SO 153 0 min 0,000 mm 0,0 UV-I 51 W/m 12,9 C 17,0 C 6,4 km/h (2 Bft)
06.10.2015 16:55 17,0 C 76 % 1003,9 hPa 0,0 l/m 1,3 km/h (1 Bft) SO 142 0 min 0,000 mm 0,0 UV-I 63 W/m 12,7 C 17,0 C 8,0 km/h (2 Bft)
06.10.2015 17:00 17,0 C 76 % 1003,9 hPa 0,0 l/m 0,0 km/h (0 Bft) O-SO 105 0 min 0,000 mm 0,0 UV-I 15 W/m 12,7 C 17,0 C 0,0 km/h (0 Bft)
06.10.2015 17:05 17,1 C 76 % 1003,8 hPa 0,0 l/m 0,0 km/h (0 Bft) S-SW 209 0 min 0,051 mm 0,0 UV-I 11 W/m 12,8 C 17,1 C 0,0 km/h (0 Bft)
06.10.2015 17:10 17,1 C 76 % 1003,8 hPa 0,0 l/m 0,0 km/h (0 Bft) S-SW 209 0 min 0,000 mm 0,0 UV-I 7 W/m 12,8 C 17,1 C 0,0 km/h (0 Bft)
06.10.2015 17:15 17,1 C 76 % 1003,8 hPa 0,0 l/m 0,0 km/h (0 Bft) S-SW 209 0 min 0,000 mm 0,0 UV-I 8 W/m 12,8 C 17,1 C 0,0 km/h (0 Bft)
06.10.2015 17:20 17,1 C 76 % 1003,7 hPa 0,0 l/m 0,0 km/h (0 Bft) S-SW 209 0 min 0,000 mm 0,0 UV-I 11 W/m 12,8 C 17,1 C 0,0 km/h (0 Bft)
06.10.2015 17:25 17,1 C 76 % 1003,7 hPa 0,0 l/m 0,0 km/h (0 Bft) S-SW 209 0 min 0,000 mm 0,0 UV-I 13 W/m 12,8 C 17,1 C 0,0 km/h (0 Bft)
06.10.2015 17:30 17,1 C 76 % 1003,6 hPa 0,0 l/m 0,0 km/h (0 Bft) S-SW 209 0 min 0,000 mm 0,0 UV-I 38 W/m 12,8 C 17,1 C 0,0 km/h (0 Bft)
06.10.2015 17:35 17,1 C 77 % 1003,3 hPa 0,0 l/m 0,1 km/h (0 Bft) O-NO 73 0 min 0,000 mm 0,0 UV-I 72 W/m 13,0 C 17,1 C 1,6 km/h (1 Bft)
06.10.2015 17:40 17,1 C 77 % 1003,0 hPa 0,0 l/m 4,9 km/h (1 Bft) O-NO 76 5 min 0,000 mm 0,0 UV-I 118 W/m 13,0 C 17,1 C 12,9 km/h (3 Bft)
06.10.2015 17:45 17,1 C 77 % 1003,1 hPa 0,0 l/m 3,9 km/h (1 Bft) O-NO 75 5 min 0,000 mm 0,0 UV-I 136 W/m 13,0 C 17,1 C 16,1 km/h (3 Bft)
06.10.2015 17:50 17,1 C 77 % 1003,5 hPa 0,0 l/m 2,8 km/h (1 Bft) O 88 5 min 0,000 mm 0,0 UV-I 124 W/m 13,0 C 17,1 C 11,3 km/h (2 Bft)
06.10.2015 17:55 17,2 C 76 % 1003,8 hPa 0,0 l/m 1,7 km/h (1 Bft) O-SO 121 0 min 0,000 mm 0,0 UV-I 76 W/m 12,9 C 17,2 C 9,7 km/h (2 Bft)
06.10.2015 18:00 17,2 C 76 % 1004,0 hPa 0,0 l/m 0,0 km/h (0 Bft) O-SO 121 0 min 0,000 mm 0,0 UV-I 39 W/m 12,9 C 17,2 C 1,6 km/h (1 Bft)
06.10.2015 18:05 17,2 C 76 % 1004,0 hPa 0,0 l/m 0,3 km/h (0 Bft) O-SO 107 0 min 0,026 mm 0,0 UV-I 28 W/m 12,9 C 17,2 C 4,8 km/h (1 Bft)
06.10.2015 18:10 17,2 C 76 % 1003,9 hPa 0,0 l/m 4,1 km/h (1 Bft) O-NO 69 0 min 0,000 mm 0,0 UV-I 14 W/m 12,9 C 17,2 C 11,3 km/h (2 Bft)
06.10.2015 18:15 17,2 C 76 % 1004,2 hPa 0,0 l/m 4,6 km/h (1 Bft) SW 230 0 min 0,000 mm 0,0 UV-I 1 W/m 12,9 C 17,2 C 12,9 km/h (3 Bft)
06.10.2015 18:20 17,2 C 76 % 1004,3 hPa 0,0 l/m 2,5 km/h (1 Bft) S 190 0 min 0,000 mm 0,0 UV-I 0 W/m 12,9 C 17,2 C 12,9 km/h (3 Bft)
06.10.2015 18:25 17,2 C 76 % 1004,4 hPa 0,0 l/m 0,0 km/h (0 Bft) S-SO 161 0 min 0,000 mm 0,0 UV-I 5 W/m 12,9 C 17,2 C 0,0 km/h (0 Bft)
06.10.2015 18:30 17,2 C 76 % 1004,4 hPa 0,0 l/m 0,0 km/h (0 Bft) O-SO 107 0 min 0,000 mm 0,0 UV-I 1 W/m 12,9 C 17,2 C 0,0 km/h (0 Bft)
06.10.2015 18:35 17,2 C 76 % 1004,4 hPa 0,0 l/m 0,0 km/h (0 Bft) SO 140 0 min 0,000 mm 0,0 UV-I 0 W/m 12,9 C 17,2 C 0,0 km/h (0 Bft)
06.10.2015 18:40 17,2 C 76 % 1004,4 hPa 0,0 l/m 0,0 km/h (0 Bft) SO 134 0 min 0,000 mm 0,0 UV-I 0 W/m 12,9 C 17,2 C 0,0 km/h (0 Bft)
06.10.2015 18:45 17,2 C 76 % 1004,4 hPa 0,0 l/m 0,0 km/h (0 Bft) O-SO 110 0 min 0,000 mm 0,0 UV-I 0 W/m 12,9 C 17,2 C 0,0 km/h (0 Bft)
06.10.2015 18:50 17,1 C 76 % 1004,5 hPa 0,0 l/m 0,2 km/h (0 Bft) O-SO 105 0 min 0,000 mm 0,0 UV-I 0 W/m 12,8 C 17,1 C 3,2 km/h (1 Bft)
06.10.2015 18:55 17,2 C 76 % 1004,5 hPa 0,0 l/m 0,0 km/h (0 Bft) O-SO 119 0 min 0,000 mm 0,0 UV-I 0 W/m 12,9 C 17,2 C 0,0 km/h (0 Bft)
06.10.2015 19:00 17,1 C 76 % 1004,6 hPa 0,0 l/m 0,6 km/h (0 Bft) O-NO 64 0 min 0,000 mm 0,0 UV-I 0 W/m 12,8 C 17,1 C 8,0 km/h (2 Bft)
06.10.2015 19:05 17,1 C 76 % 1004,6 hPa 0,0 l/m 0,2 km/h (0 Bft) SO 140 0 min 0,000 mm 0,0 UV-I 0 W/m 12,8 C 17,1 C 4,8 km/h (1 Bft)
06.10.2015 19:10 17,1 C 76 % 1004,6 hPa 0,0 l/m 0,0 km/h (0 Bft) S-SW 192 0 min 0,000 mm 0,0 UV-I 0 W/m 12,8 C 17,1 C 0,0 km/h (0 Bft)
06.10.2015 19:15 17,1 C 76 % 1004,5 hPa 0,0 l/m 1,4 km/h (1 Bft) O-NO 76 0 min 0,000 mm 0,0 UV-I 0 W/m 12,8 C 17,1 C 6,4 km/h (2 Bft)
06.10.2015 19:20 16,9 C 76 % 1004,6 hPa 0,0 l/m 1,8 km/h (1 Bft) S-SO 163 0 min 0,000 mm 0,0 UV-I 0 W/m 12,6 C 16,9 C 6,4 km/h (2 Bft)
06.10.2015 19:25 16,9 C 76 % 1004,7 hPa 0,0 l/m 0,1 km/h (0 Bft) O 84 0 min 0,000 mm 0,0 UV-I 0 W/m 12,6 C 16,9 C 3,2 km/h (1 Bft)
06.10.2015 19:30 16,8 C 76 % 1004,8 hPa 0,0 l/m 0,4 km/h (0 Bft) SO 124 0 min 0,000 mm 0,0 UV-I 0 W/m 12,5 C 16,8 C 4,8 km/h (1 Bft)
06.10.2015 19:35 16,8 C 76 % 1004,9 hPa 0,0 l/m 0,7 km/h (0 Bft) O-SO 112 0 min 0,000 mm 0,0 UV-I 0 W/m 12,5 C 16,8 C 8,0 km/h (2 Bft)
06.10.2015 19:40 16,8 C 76 % 1005,0 hPa 0,0 l/m 0,0 km/h (0 Bft) O 94 0 min 0,000 mm 0,0 UV-I 0 W/m 12,5 C 16,8 C 0,0 km/h (0 Bft)
06.10.2015 19:45 16,7 C 76 % 1005,0 hPa 0,0 l/m 1,9 km/h (1 Bft) S-SO 150 0 min 0,000 mm 0,0 UV-I 0 W/m 12,4 C 16,7 C 11,3 km/h (2 Bft)
06.10.2015 19:50 16,7 C 76 % 1005,1 hPa 0,0 l/m 0,5 km/h (0 Bft) S 169 0 min 0,000 mm 0,0 UV-I 0 W/m 12,4 C 16,7 C 6,4 km/h (2 Bft)
06.10.2015 19:55 16,6 C 76 % 1005,1 hPa 0,0 l/m 0,0 km/h (0 Bft) S-SW 196 0 min 0,000 mm 0,0 UV-I 0 W/m 12,3 C 16,6 C 1,6 km/h (1 Bft)
06.10.2015 20:00 16,6 C 76 % 1005,2 hPa 0,0 l/m 0,2 km/h (0 Bft) W-NW 294 0 min 0,000 mm 0,0 UV-I 0 W/m 12,3 C 16,6 C 4,8 km/h (1 Bft)
06.10.2015 20:05 16,5 C 76 % 1005,4 hPa 0,0 l/m 0,1 km/h (0 Bft) S 186 0 min 0,025 mm 0,0 UV-I 0 W/m 12,3 C 16,5 C 3,2 km/h (1 Bft)
06.10.2015 20:10 16,4 C 76 % 1005,2 hPa 0,0 l/m 0,2 km/h (0 Bft) W-SW 240 0 min 0,000 mm 0,0 UV-I 0 W/m 12,2 C 16,4 C 4,8 km/h (1 Bft)
06.10.2015 20:15 16,4 C 76 % 1005,4 hPa 0,0 l/m 1,7 km/h (1 Bft) S-SW 206 0 min 0,000 mm 0,0 UV-I 0 W/m 12,2 C 16,4 C 16,1 km/h (3 Bft)
06.10.2015 20:20 16,4 C 76 % 1005,5 hPa 0,0 l/m 0,0 km/h (0 Bft) S-SO 155 0 min 0,000 mm 0,0 UV-I 0 W/m 12,2 C 16,4 C 0,0 km/h (0 Bft)
06.10.2015 20:25 16,3 C 76 % 1005,6 hPa 0,0 l/m 0,8 km/h (0 Bft) S 182 0 min 0,000 mm 0,0 UV-I 0 W/m 12,1 C 16,3 C 9,7 km/h (2 Bft)
06.10.2015 20:30 16,3 C 76 % 1005,6 hPa 0,0 l/m 0,4 km/h (0 Bft) S-SW 208 0 min 0,000 mm 0,0 UV-I 0 W/m 12,1 C 16,3 C 4,8 km/h (1 Bft)
06.10.2015 20:35 16,3 C 76 % 1005,6 hPa 0,0 l/m 0,9 km/h (0 Bft) O-SO 118 0 min 0,000 mm 0,0 UV-I 0 W/m 12,1 C 16,3 C 9,7 km/h (2 Bft)
06.10.2015 20:40 16,3 C 76 % 1005,6 hPa 0,0 l/m 0,0 km/h (0 Bft) W-SW 246 0 min 0,000 mm 0,0 UV-I 0 W/m 12,1 C 16,3 C 0,0 km/h (0 Bft)
06.10.2015 20:45 16,3 C 76 % 1005,7 hPa 0,0 l/m 0,0 km/h (0 Bft) S-SW 213 0 min 0,000 mm 0,0 UV-I 0 W/m 12,1 C 16,3 C 1,6 km/h (1 Bft)
06.10.2015 20:50 16,3 C 76 % 1005,7 hPa 0,0 l/m 0,2 km/h (0 Bft) O-SO 117 0 min 0,000 mm 0,0 UV-I 0 W/m 12,1 C 16,3 C 1,6 km/h (1 Bft)
06.10.2015 20:55 16,3 C 76 % 1005,7 hPa 0,0 l/m 0,9 km/h (0 Bft) O-SO 103 0 min 0,000 mm 0,0 UV-I 0 W/m 12,1 C 16,3 C 6,4 km/h (2 Bft)
06.10.2015 21:00 16,3 C 76 % 1005,8 hPa 0,0 l/m 0,1 km/h (0 Bft) O 84 0 min 0,000 mm 0,0 UV-I 0 W/m 12,1 C 16,3 C 3,2 km/h (1 Bft)
06.10.2015 21:05 16,3 C 76 % 1005,8 hPa 0,0 l/m 0,4 km/h (0 Bft) O-SO 106 0 min 0,025 mm 0,0 UV-I 0 W/m 12,1 C 16,3 C 3,2 km/h (1 Bft)
06.10.2015 21:10 16,3 C 76 % 1005,9 hPa 0,0 l/m 0,4 km/h (0 Bft) O-SO 105 0 min 0,000 mm 0,0 UV-I 0 W/m 12,1 C 16,3 C 4,8 km/h (1 Bft)
06.10.2015 21:15 16,2 C 76 % 1005,9 hPa 0,0 l/m 1,4 km/h (1 Bft) S-SO 147 0 min 0,000 mm 0,0 UV-I 0 W/m 12,0 C 16,2 C 6,4 km/h (2 Bft)
06.10.2015 21:20 16,2 C 76 % 1005,9 hPa 0,0 l/m 0,5 km/h (0 Bft) SO 141 0 min 0,000 mm 0,0 UV-I 0 W/m 12,0 C 16,2 C 4,8 km/h (1 Bft)
06.10.2015 21:25 16,2 C 76 % 1005,9 hPa 0,0 l/m 1,0 km/h (0 Bft) S-SO 151 0 min 0,000 mm 0,0 UV-I 0 W/m 12,0 C 16,2 C 6,4 km/h (2 Bft)
06.10.2015 21:30 16,1 C 76 % 1005,9 hPa 0,0 l/m 1,0 km/h (0 Bft) S-SO 151 0 min 0,000 mm 0,0 UV-I 0 W/m 11,9 C 16,1 C 6,4 km/h (2 Bft)
06.10.2015 21:35 16,1 C 76 % 1005,8 hPa 0,0 l/m 2,2 km/h (1 Bft) S-SW 192 0 min 0,000 mm 0,0 UV-I 0 W/m 11,9 C 16,1 C 8,0 km/h (2 Bft)
06.10.2015 21:40 16,0 C 76 % 1005,9 hPa 0,0 l/m 1,2 km/h (1 Bft) S 178 0 min 0,000 mm 0,0 UV-I 0 W/m 11,8 C 16,0 C 6,4 km/h (2 Bft)
06.10.2015 21:45 15,9 C 76 % 1005,9 hPa 0,0 l/m 2,0 km/h (1 Bft) S-SW 205 0 min 0,000 mm 0,0 UV-I 0 W/m 11,7 C 15,9 C 6,4 km/h (2 Bft)
06.10.2015 21:50 15,9 C 76 % 1006,0 hPa 0,0 l/m 4,3 km/h (1 Bft) W 259 0 min 0,000 mm 0,0 UV-I 0 W/m 11,7 C 15,9 C 11,3 km/h (2 Bft)
06.10.2015 21:55 15,9 C 76 % 1006,0 hPa 0,0 l/m 3,9 km/h (1 Bft) W 269 0 min 0,000 mm 0,0 UV-I 0 W/m 11,7 C 15,9 C 12,9 km/h (3 Bft)
06.10.2015 22:00 15,9 C 76 % 1006,0 hPa 0,0 l/m 4,7 km/h (1 Bft) W 268 0 min 0,000 mm 0,0 UV-I 0 W/m 11,7 C 15,9 C 9,7 km/h (2 Bft)
06.10.2015 22:05 15,9 C 76 % 1005,9 hPa 0,0 l/m 4,0 km/h (1 Bft) W-NW 290 0 min 0,026 mm 0,0 UV-I 0 W/m 11,7 C 15,9 C 11,3 km/h (2 Bft)
06.10.2015 22:10 15,9 C 76 % 1005,9 hPa 0,0 l/m 1,5 km/h (1 Bft) W-NW 283 0 min 0,000 mm 0,0 UV-I 0 W/m 11,7 C 15,9 C 4,8 km/h (1 Bft)
06.10.2015 22:15 15,8 C 76 % 1006,0 hPa 0,0 l/m 0,1 km/h (0 Bft) W-NW 282 0 min 0,000 mm 0,0 UV-I 0 W/m 11,6 C 15,8 C 3,2 km/h (1 Bft)
06.10.2015 22:20 15,8 C 76 % 1005,9 hPa 0,0 l/m 0,4 km/h (0 Bft) W 272 0 min 0,000 mm 0,0 UV-I 0 W/m 11,6 C 15,8 C 3,2 km/h (1 Bft)
06.10.2015 22:25 15,8 C 76 % 1005,9 hPa 0,0 l/m 2,4 km/h (1 Bft) W 259 0 min 0,000 mm 0,0 UV-I 0 W/m 11,6 C 15,8 C 8,0 km/h (2 Bft)
06.10.2015 22:30 15,8 C 76 % 1006,0 hPa 0,0 l/m 1,3 km/h (1 Bft) W-SW 254 0 min 0,000 mm 0,0 UV-I 0 W/m 11,6 C 15,8 C 6,4 km/h (2 Bft)
06.10.2015 22:35 15,7 C 76 % 1006,1 hPa 0,0 l/m 1,1 km/h (1 Bft) W-SW 244 0 min 0,000 mm 0,0 UV-I 0 W/m 11,5 C 15,7 C 6,4 km/h (2 Bft)
06.10.2015 22:40 15,7 C 76 % 1006,1 hPa 0,0 l/m 0,7 km/h (0 Bft) W-SW 252 0 min 0,000 mm 0,0 UV-I 0 W/m 11,5 C 15,7 C 6,4 km/h (2 Bft)
06.10.2015 22:45 15,6 C 76 % 1006,1 hPa 0,0 l/m 1,5 km/h (1 Bft) SW 227 0 min 0,000 mm 0,0 UV-I 0 W/m 11,4 C 15,6 C 8,0 km/h (2 Bft)
06.10.2015 22:50 15,6 C 76 % 1006,2 hPa 0,0 l/m 2,5 km/h (1 Bft) W-SW 254 0 min 0,000 mm 0,0 UV-I 0 W/m 11,4 C 15,6 C 8,0 km/h (2 Bft)
06.10.2015 22:55 15,5 C 76 % 1006,2 hPa 0,0 l/m 1,9 km/h (1 Bft) S-SW 195 0 min 0,000 mm 0,0 UV-I 0 W/m 11,3 C 15,5 C 6,4 km/h (2 Bft)
06.10.2015 23:00 15,5 C 77 % 1006,2 hPa 0,0 l/m 1,4 km/h (1 Bft) SW 229 0 min 0,000 mm 0,0 UV-I 0 W/m 11,5 C 15,5 C 6,4 km/h (2 Bft)
06.10.2015 23:05 15,5 C 77 % 1006,0 hPa 0,0 l/m 0,0 km/h (0 Bft) SW 219 0 min 0,025 mm 0,0 UV-I 0 W/m 11,5 C 15,5 C 1,6 km/h (1 Bft)
06.10.2015 23:10 15,5 C 77 % 1006,0 hPa 0,0 l/m 0,0 km/h (0 Bft) SW 219 0 min 0,000 mm 0,0 UV-I 0 W/m 11,5 C 15,5 C 0,0 km/h (0 Bft)
06.10.2015 23:15 15,5 C 77 % 1006,2 hPa 0,0 l/m 0,0 km/h (0 Bft) SW 219 0 min 0,000 mm 0,0 UV-I 0 W/m 11,5 C 15,5 C 1,6 km/h (1 Bft)
06.10.2015 23:20 15,3 C 77 % 1006,1 hPa 0,0 l/m 0,1 km/h (0 Bft) SW 218 0 min 0,000 mm 0,0 UV-I 0 W/m 11,3 C 15,3 C 3,2 km/h (1 Bft)
06.10.2015 23:25 15,3 C 77 % 1006,2 hPa 0,0 l/m 2,2 km/h (1 Bft) S 184 0 min 0,000 mm 0,0 UV-I 0 W/m 11,3 C 15,3 C 6,4 km/h (2 Bft)
06.10.2015 23:30 15,2 C 76 % 1006,2 hPa 0,0 l/m 0,6 km/h (0 Bft) SW 227 0 min 0,000 mm 0,0 UV-I 0 W/m 11,0 C 15,2 C 9,7 km/h (2 Bft)
06.10.2015 23:35 15,2 C 76 % 1006,2 hPa 0,0 l/m 0,0 km/h (0 Bft) SW 227 0 min 0,000 mm 0,0 UV-I 0 W/m 11,0 C 15,2 C 0,0 km/h (0 Bft)
06.10.2015 23:40 15,0 C 77 % 1006,2 hPa 0,0 l/m 0,0 km/h (0 Bft) SW 226 0 min 0,000 mm 0,0 UV-I 0 W/m 11,0 C 15,0 C 0,0 km/h (0 Bft)
06.10.2015 23:45 14,9 C 77 % 1006,2 hPa 0,0 l/m 0,0 km/h (0 Bft) SW 226 0 min 0,000 mm 0,0 UV-I 0 W/m 10,9 C 14,9 C 0,0 km/h (0 Bft)
06.10.2015 23:50 14,9 C 77 % 1006,2 hPa 0,0 l/m 0,0 km/h (0 Bft) SW 227 0 min 0,000 mm 0,0 UV-I 0 W/m 10,9 C 14,9 C 0,0 km/h (0 Bft)
06.10.2015 23:55 14,8 C 77 % 1006,4 hPa 0,0 l/m 0,0 km/h (0 Bft) W-SW 256 0 min 0,000 mm 0,0 UV-I 0 W/m 10,8 C 14,8 C 0,0 km/h (0 Bft)
_ Min-Zeit 03:30 11:25 17:40 - 00:00 - - - - - - 03:35 03:45 06:35
Minimum _ 12,7 C 76 % 1003,0 hPa - 0,0 km/h (0 Bft) - - - - - - 8,8 C 12,7 C 0,0 km/h (0 Bft)
_ Max-Zeit 14:20 05:25 00:00 00:40 03:45 - - 17:40 12:05 13:05 13:05 14:20 14:20 03:00
Maximum _ 17,8 C 79 % 1008,4 hPa 0,2 l/m 6,5 km/h
O-SO (2 Bft)
- - 5 min 0,076 mm 1,5 UV-I 264 W/m 13,5 C 17,8 C 16,1 km/h
O-NO (3 Bft)
Durchschnitt _ 15,1 C 77 % 1005,2 hPa #2,0 l/m 1,3 km/h (1 Bft) O-NO - #15 min. #0,711 mm 0,7 UV-I 73 W/m 11,1 C 15,1 C 5,6 km/h (1 Bft)